Weather in Nartan

Russia / The Kabardino-Balkar Republic     43°30′19″N   43°42′05″E
temp.,
°C
wind,
m/s
gust,
m/s
humid.,
%
clouds,
%
prec.,
mm/h
press.,
hPa
HPBL,
m
5 december, sun
sun500:00+6sw11465 0.0 101210
03:00+5wsw1144100 0.0 101210
06:00+6nw1145100 0.0 101110
09:00+7nw1144100 0.0 101212
12:00+9n1239100 0.0 1012210
15:00+9nnw0146100 0.0 101375
18:00+8ene114942 0.0 101410
21:00+7sw115336 0.0 101610
6 december, mon
mon600:00+6sw11565 0.0 101710
03:00+5w11625 0.0 101910
06:00+4sw11645 0.0 102010
09:00+6sse11580 0.0 102113
12:00+10ene22455 0.0 1020329
15:00+10ene224525 0.0 1020235
18:00+6sse015844 0.0 102210
21:00+6wsw006221 0.0 102310
7 december, tue
tue700:00+5wsw00640 0.0 102210
03:00+5s11630 0.0 102210
06:00+4ssw11650 0.0 102310
09:00+6ese11588 0.0 102213
12:00+10e22480 0.0 1020241
15:00+10ene22480 0.0 1018274
18:00+6ne00730 0.0 101810
21:00+5nnw11790 0.0 101610
8 december, wed
wed800:00+3nnw11870 0.0 101412
03:00+2nw229425 0.0 101319
06:00+2nw119562 0.0 101261
09:00+4nnw118652 0.0 1012195
12:00+8n1166100 0.0 1010244
15:00+9n11600 0.0 1009241
18:00+6wnw11735 0.0 101010
21:00+6wsw11715 0.0 101010
9 december, thu
thu900:00+6wsw00685 0.0 101110
03:00+6ene116794 0.0 101310
06:00+7ssw2256100 0.0 101412
09:00+8sw2255100 0.0 101715
12:00+10sw2259100 0.1 1016111
15:00+10ssw2366100 0.2 101855
18:00+9sw337899 0.1 102067
21:00+8wnw1178100 0.2 102111